星链-6101 (STARLINK-6101 )

导读

STARLINK-6101是美国太空探索技术公司 SpaceX 星链互联网卫星星座的一员,于2023年3月29日发射入轨,属于星链增强组网任务的卫星。星链星座旨在为全球提供高速低延迟互联网覆盖,该卫星进入近地轨道,承担全球偏远地区、海上等场景网络接入服务,进一步完善星链星座的覆盖密度与服务能力。

基本信息
目录编号:
56115
目录名称:
STARLINK-6101
国际标识:
2023-046Y
轨道中心:
EARTH
卫星名称:
星链-6101
卫星全名:
星链-6101 (STARLINK-6101 )
卫星状态:
在轨 (已飞行1263 天)
发射日期:
2023-03-29 UTC
国别 :
美国 (US)
星等 :
--
该卫星已列入 空间交会检测服务 Space Conjunction Data Service (SCDS) ,当前飞行风险评估等级: 无高风险
轨道信息
数据来源 国际轨道数据 AOE轨道数据
星历时间 2026-09-12T12:50:17+0800
12小时前
查看轨道信息
2026-09-09T22:00:00+0800
3天前
查看轨道信息
半长轴 6861.193km 6861.182km
偏心率 0.0001341 0.0000032
轨道倾角 43.004° 42.999°
近地点辐角 259.261° 29.140°
升交点赤经 185.032° 199.824°
平近点角 100.809° 315.592°
近地点 482.135km 483.023km
远地点 483.977km 483.067km
周期 94.267分钟 94.267分钟
每日圈数 15.275778 15.275814
详细信息
固有亮度:
5
最大亮度:
2.5
卫星平台:
Starlink v1.5
覆盖范围:
全球
运营商:
太空探索技术公司
运营商所在国:
美国
制造商(研发单位):
太空探索技术公司
制造商所在国:
美国
使用方式:
暂无
卫星简介
星链(Starlink)计划是由太空探索技术公司(SpaceX)提出的一个巨型低轨卫星互联网星座项目,计划在2019年至2024年间在太空搭建由约1.2万颗卫星组成的“星链”网络,其中1584颗将部署在地球上空550千米处的近地轨道,并从2020年开始工作。该卫星仍在工作。
2D轨道图
3D轨道图
轨道高度分析图
轨道倾角分析图
轨道综合分析图
查看轨道综合分析图
交会数据列表
事件ID 空间交会对象 最接近时刻(TCA) 交会距离 交会风险概率(CRP) 交会风险指数(CRI) 操作
CDM_260915-020005-611506-696221
2026-09-15T
02:00:56+0000
0.985 km
远距离
2.106247E-5 中风险 0.61
CDM_260915-002605-611506-696221
2026-09-15T
00:26:47+0000
2.552 km
极远距离
1.313279E-6 低风险 0.37
CDM_260915-033505-611506-696221
2026-09-15T
03:35:05+0000
2.609 km
极远距离
1.26673E-6 低风险 0.37
CDM_260914-160505-611506-382421
2026-09-14T
16:05:59+0000
2.169 km
极远距离
6.074551E-7 极低风险 0.31
CDM_260914-165305-611506-382421
2026-09-14T
16:53:03+0000
2.690 km
极远距离
4.350962E-7 极低风险 0.28
与全量物体交会距离演化趋势
与全量物体交会风险概率演化趋势